TimeMDT,TemperatureF,Dew PointF,Humidity,Sea Level PressureIn,VisibilityMPH,Wind Direction,Wind SpeedMPH,Gust SpeedMPH,PrecipitationIn,Events,Conditions,WindDirDegrees,DateUTC
12:52 AM,81.0,44.1,27,29.84,10.0,NNW,11.5,-,N/A,,Mostly Cloudy,340,2012-09-03 06:52:00
1:52 AM,79.0,45.0,30,29.85,10.0,North,6.9,-,N/A,,Mostly Cloudy,10,2012-09-03 07:52:00
2:52 AM,78.8,44.6,30,30.15,10.0,NW,3.5,-,N/A,,Scattered Clouds,310,2012-09-03 08:52:00
3:52 AM,77.0,46.0,33,29.86,10.0,NNW,10.4,-,N/A,,Partly Cloudy,340,2012-09-03 09:52:00
4:52 AM,73.9,48.0,40,29.88,10.0,NNW,9.2,-,N/A,,Partly Cloudy,340,2012-09-03 10:52:00
5:52 AM,73.0,46.9,39,29.90,10.0,NE,3.5,-,N/A,,Clear,50,2012-09-03 11:52:00
6:52 AM,73.0,48.0,41,29.91,10.0,North,4.6,-,N/A,,Scattered Clouds,10,2012-09-03 12:52:00
7:52 AM,72.0,46.9,41,29.93,10.0,SE,4.6,-,N/A,,Scattered Clouds,130,2012-09-03 13:52:00
8:52 AM,73.9,48.0,40,29.93,10.0,West,6.9,-,N/A,,Scattered Clouds,270,2012-09-03 14:52:00
9:52 AM,79.0,48.0,34,29.94,10.0,NNW,8.1,-,N/A,,Scattered Clouds,340,2012-09-03 15:52:00
10:52 AM,84.9,46.0,26,29.93,10.0,North,8.1,-,N/A,,Scattered Clouds,10,2012-09-03 16:52:00
11:52 AM,88.0,44.1,22,29.91,10.0,NNW,11.5,-,N/A,,Mostly Cloudy,330,2012-09-03 17:52:00
12:52 PM,90.0,44.1,20,29.89,10.0,NNW,13.8,20.7,N/A,,Scattered Clouds,340,2012-09-03 18:52:00
1:52 PM,91.0,43.0,19,29.86,10.0,North,8.1,18.4,N/A,,Scattered Clouds,350,2012-09-03 19:52:00
2:52 PM,93.0,42.1,17,29.83,10.0,WNW,16.1,23.0,N/A,,Scattered Clouds,290,2012-09-03 20:52:00
3:52 PM,93.9,41.0,16,29.81,10.0,WNW,12.7,18.4,N/A,,Scattered Clouds,300,2012-09-03 21:52:00
4:52 PM,93.0,37.0,14,29.81,10.0,WNW,10.4,18.4,N/A,,Scattered Clouds,290,2012-09-03 22:52:00
5:52 PM,90.0,36.0,15,29.82,10.0,WNW,13.8,-,N/A,,Scattered Clouds,300,2012-09-03 23:52:00
6:52 PM,88.0,41.0,19,29.82,10.0,WSW,15.0,20.7,N/A,,Scattered Clouds,240,2012-09-04 00:52:00
7:52 PM,84.9,41.0,21,29.84,10.0,West,10.4,-,N/A,,Mostly Cloudy,270,2012-09-04 01:52:00
8:52 PM,80.6,42.8,26,30.15,10.0,ESE,5.8,-,N/A,,Mostly Cloudy,110,2012-09-04 02:52:00
9:52 PM,82.0,45.0,27,29.89,10.0,WSW,10.4,-,N/A,,Mostly Cloudy,250,2012-09-04 03:52:00
10:52 PM,81.0,45.0,28,29.89,10.0,SSE,5.8,-,N/A,,Mostly Cloudy,160,2012-09-04 04:52:00
11:52 PM,80.1,46.0,30,29.88,10.0,SSW,5.8,-,N/A,,Mostly Cloudy,200,2012-09-04 05:52:00